FW6831 Weather Reports


Display with metric or nautical units.
time (UTC)temp
F
wind
direction
speed
MPH
gust
MPH
rain 1hr
in
rain 24hr
in
rain mn
in
humidity
%
barometer
mb
20260509162546 52 0 0.0 0.0 0.00 0.00 0.00 93 1024.4
20260509162043 52 0 0.0 0.0 0.00 0.00 0.00 93 1024.5
20260509161552 53 0 0.0 0.0 0.00 0.00 0.00 92 1024.4
20260509161044 53 0 0.0 0.0 0.00 0.00 0.00 93 1024.5
20260509160541 53 0 0.0 0.0 0.00 0.00 0.00 93 1024.4
20260509160048 53 0 0.0 0.0 0.00 0.00 0.00 93 1024.5
20260509155543 53 0 0.0 0.0 0.00 0.00 0.00 92 1024.4
20260509155043 53 0 0.0 0.0 0.00 0.00 0.00 93 1024.4
20260509154556 53 0 0.0 0.0 0.00 0.00 0.00 92 1024.5
20260509154047 53 0 0.0 0.0 0.00 0.00 0.00 92 1024.5
20260509153543 54 0 0.0 0.0 0.00 0.00 0.00 92 1024.6
20260509153102 54 0 0.0 0.0 0.00 0.00 0.00 92 1024.5
20260509152543 54 0 0.0 0.0 0.00 0.00 0.00 93 1024.7
20260509152044 54 0 0.0 0.0 0.00 0.00 0.00 93 1024.6
20260509151555 54 0 0.0 0.0 0.00 0.00 0.00 94 1024.6
20260509151041 54 0 0.0 0.0 0.00 0.00 0.00 94 1024.6
20260509150543 54 0 0.0 0.0 0.00 0.00 0.00 94 1024.7
20260509150048 54 0 0.0 0.0 0.00 0.00 0.00 94 1024.5
20260509145544 54 0 0.0 0.0 0.00 0.00 0.00 94 1024.5
20260509145043 53 0 0.0 1.0 0.00 0.00 0.00 94 1024.5
20260509144559 53 0 0.0 1.0 0.00 0.00 0.00 94 1024.6
20260509144043 53 0 0.0 1.0 0.00 0.00 0.00 94 1024.5
20260509143547 53 0 0.0 1.0 0.00 0.00 0.00 93 1024.6
20260509143054 53 319 1.0 1.0 0.00 0.00 0.00 93 1024.5
20260509142542 53 307 1.0 1.0 0.00 0.00 0.00 93 1024.5
20260509142043 54 0 0.0 0.0 0.00 0.00 0.00 94 1024.5
20260509141556 54 0 0.0 1.0 0.00 0.00 0.00 94 1024.5
20260509141044 54 0 0.0 1.0 0.00 0.00 0.00 94 1024.5
20260509140545 54 307 0.0 1.0 0.00 0.00 0.00 94 1024.4
20260509135543 53 0 0.0 1.0 0.00 0.00 0.00 94 1024.5
20260509135044 53 307 1.0 1.0 0.00 0.00 0.00 94 1024.7
20260509134558 53 307 0.0 1.0 0.00 0.00 0.00 94 1024.5
20260509134044 53 311 0.0 1.0 0.00 0.00 0.00 94 1024.6
20260509133546 53 311 1.0 1.0 0.00 0.00 0.00 93 1024.6
20260509133053 53 310 1.0 1.0 0.00 0.00 0.00 93 1024.7
20260509132544 53 311 1.0 2.0 0.00 0.00 0.00 93 1024.7
20260509132044 54 310 1.0 2.0 0.00 0.00 0.00 93 1024.8
20260509131551 54 312 1.0 1.0 0.00 0.00 0.00 93 1024.9
20260509131044 54 312 1.0 1.0 0.00 0.00 0.00 93 1024.8
20260509130545 53 312 0.0 1.0 0.00 0.00 0.00 93 1024.9
20260509130051 53 312 0.0 1.0 0.00 0.00 0.00 93 1024.9
20260509125544 53 314 1.0 1.0 0.00 0.00 0.00 92 1024.8
20260509125044 53 309 1.0 1.0 0.00 0.00 0.00 92 1024.8
20260509124546 54 308 1.0 1.0 0.00 0.00 0.00 92 1024.8
20260509124045 54 311 1.0 1.0 0.00 0.00 0.00 92 1024.8
20260509123544 54 311 0.0 1.0 0.00 0.00 0.00 92 1024.8
20260509123050 54 311 1.0 1.0 0.00 0.00 0.00 91 1024.8
20260509122545 54 315 0.0 1.0 0.00 0.00 0.00 91 1024.9
20260509122045 54 315 0.0 1.0 0.00 0.00 0.00 91 1024.8
20260509121556 55 315 0.0 1.0 0.00 0.00 0.00 91 1024.8
20260509121048 55 309 0.0 1.0 0.00 0.00 0.00 91 1024.8
20260509120547 55 309 0.0 0.0 0.00 0.00 0.00 91 1024.8
20260509120105 54 0 0.0 1.0 0.00 0.00 0.00 91 1024.7
20260509115545 55 309 0.0 1.0 0.00 0.00 0.00 91 1024.8
20260509115044 55 309 1.0 1.0 0.00 0.00 0.00 91 1024.8
20260509114551 55 307 0.0 1.0 0.00 0.00 0.00 90 1024.9
20260509114045 55 306 0.0 1.0 0.00 0.00 0.00 90 1024.9
20260509113543 55 306 0.0 1.0 0.00 0.00 0.00 90 1024.9
20260509113054 55 306 0.0 1.0 0.00 0.00 0.00 90 1024.9
20260509112544 55 0 0.0 1.0 0.00 0.00 0.00 90 1024.7
20260509112044 55 315 0.0 1.0 0.00 0.00 0.00 90 1024.8
20260509111551 55 0 0.0 1.0 0.00 0.00 0.00 89 1024.8
20260509111044 55 314 0.0 1.0 0.00 0.00 0.00 89 1024.9
20260509110543 55 309 0.0 1.0 0.00 0.00 0.00 89 1024.8
20260509110054 55 0 0.0 1.0 0.00 0.00 0.00 89 1024.8
20260509105544 55 312 0.0 1.0 0.00 0.00 0.00 89 1024.9
20260509105044 56 0 0.0 1.0 0.00 0.00 0.00 88 1024.8
20260509104552 56 0 0.0 1.0 0.00 0.00 0.00 88 1024.9
20260509104045 56 311 0.0 1.0 0.00 0.00 0.00 88 1024.7
20260509103543 56 311 0.0 1.0 0.00 0.00 0.00 87 1024.8
20260509103104 56 309 0.0 1.0 0.00 0.00 0.00 87 1024.8
20260509102545 56 0 0.0 1.0 0.00 0.00 0.00 87 1024.6
20260509102045 56 309 0.0 1.0 0.00 0.00 0.00 87 1024.7
20260509101559 57 0 0.0 1.0 0.00 0.00 0.00 87 1024.6
20260509101044 57 307 0.0 1.0 0.00 0.00 0.00 86 1024.6
20260509100544 57 0 0.0 1.0 0.00 0.00 0.00 86 1024.7
20260509100057 57 304 0.0 1.0 0.00 0.00 0.00 86 1024.6
20260509095544 57 0 0.0 1.0 0.00 0.00 0.00 85 1024.6
20260509095043 57 307 0.0 1.0 0.00 0.00 0.00 85 1024.5
20260509094600 58 0 0.0 1.0 0.00 0.00 0.00 84 1024.4
20260509094044 58 305 0.0 1.0 0.00 0.00 0.00 84 1024.5
20260509093542 58 0 0.0 1.0 0.00 0.00 0.00 83 1024.3
20260509093048 58 0 0.0 0.0 0.00 0.00 0.00 83 1024.3
20260509092546 58 0 0.0 0.0 0.00 0.00 0.00 82 1024.2
20260509092044 59 0 0.0 1.0 0.00 0.00 0.00 81 1024.2
20260509091630 59 0 0.0 1.0 0.00 0.00 0.00 82 1024.2
20260509091044 59 0 0.0 1.0 0.00 0.00 0.00 82 1024.2
20260509090547 59 0 0.0 1.0 0.00 0.00 0.00 81 1024.2
20260509090051 59 0 0.0 0.0 0.00 0.00 0.00 81 1024.0
20260509085544 60 0 0.0 0.0 0.00 0.00 0.00 80 1024.0
20260509085047 60 0 0.0 0.0 0.00 0.00 0.00 80 1024.0
20260509084554 60 0 0.0 0.0 0.00 0.00 0.00 79 1023.8
20260509084042 61 0 0.0 0.0 0.00 0.00 0.00 78 1023.8
20260509083544 61 0 0.0 0.0 0.00 0.00 0.00 77 1023.7
20260509083057 61 0 0.0 0.0 0.00 0.00 0.00 76 1023.6
20260509082544 62 0 0.0 0.0 0.00 0.00 0.00 75 1023.6
20260509082049 63 0 0.0 0.0 0.00 0.00 0.00 73 1023.4
20260509081552 63 0 0.0 0.0 0.00 0.00 0.00 71 1023.3
20260509081044 64 0 0.0 0.0 0.00 0.00 0.00 70 1023.4
20260509080544 64 0 0.0 0.0 0.00 0.00 0.00 69 1023.3
20260509080106 64 0 0.0 0.0 0.00 0.00 0.00 69 1023.1
20260509075544 65 0 0.0 0.0 0.00 0.00 0.00 68 1023.2
20260509075044 65 0 0.0 0.0 0.00 0.00 0.00 68 1023.1
20260509074554 65 0 0.0 1.0 0.00 0.00 0.00 67 1023.1
20260509074044 66 0 0.0 1.0 0.00 0.00 0.00 67 1023.1
20260509073544 66 0 0.0 1.0 0.00 0.00 0.00 66 1023.1
20260509073124 67 0 0.0 2.0 0.00 0.00 0.00 65 1023.0
20260509072550 67 0 0.0 2.0 0.00 0.00 0.00 64 1023.1
20260509072044 68 81 0.0 2.0 0.00 0.00 0.00 63 1022.9
20260509071548 68 101 0.0 4.0 0.00 0.00 0.00 61 1022.9
20260509071044 69 51 0.0 4.0 0.00 0.00 0.00 61 1023.0
20260509070544 69 89 2.0 4.0 0.00 0.00 0.00 60 1022.8
20260509070054 69 143 1.0 4.0 0.00 0.00 0.00 60 1022.7
20260509065542 69 93 2.0 4.0 0.00 0.00 0.00 59 1022.6
20260509065043 70 64 1.0 4.0 0.00 0.00 0.00 60 1022.6
20260509064548 70 0 1.0 5.0 0.00 0.00 0.00 59 1022.4
20260509064049 70 98 2.0 6.0 0.00 0.00 0.00 58 1022.5
20260509063543 70 72 0.0 6.0 0.00 0.00 0.00 58 1022.3
20260509063047 71 91 0.0 3.0 0.00 0.00 0.00 59 1022.3
20260509062544 71 358 0.0 4.0 0.00 0.00 0.00 58 1022.3
20260509062047 71 110 1.0 5.0 0.00 0.00 0.00 57 1022.2
20260509061557 71 126 0.0 5.0 0.00 0.00 0.00 58 1022.1
20260509061044 71 63 1.0 5.0 0.00 0.00 0.00 58 1022.1
20260509060544 71 135 1.0 3.0 0.00 0.00 0.00 57 1022.0
20260509060100 72 58 0.0 3.0 0.00 0.00 0.00 56 1022.0
20260509055544 72 138 1.0 5.0 0.00 0.00 0.00 55 1021.9
20260509055048 72 166 2.0 5.0 0.00 0.00 0.00 56 1021.9
20260509054609 72 172 3.0 5.0 0.00 0.00 0.00 56 1021.9
20260509054044 72 25 0.0 4.0 0.00 0.00 0.00 55 1021.9
20260509053544 72 109 1.0 5.0 0.00 0.00 0.00 54 1021.8
20260509053051 72 132 2.0 5.0 0.00 0.00 0.00 55 1021.8
20260509052543 72 158 1.0 7.0 0.00 0.00 0.00 55 1021.9
20260509052044 73 179 3.0 7.0 0.00 0.00 0.00 55 1021.9
20260509051556 73 101 3.0 7.0 0.00 0.00 0.00 55 1021.8
20260509051045 73 0 0.0 4.0 0.00 0.00 0.00 55 1021.8
20260509050544 73 86 2.0 4.0 0.00 0.00 0.00 55 1021.8
20260509050056 73 168 2.0 8.0 0.00 0.00 0.00 55 1021.8
20260509045544 73 155 2.0 8.0 0.00 0.00 0.00 54 1021.7
20260509045044 73 165 2.0 7.0 0.00 0.00 0.00 54 1021.7
20260509044554 74 178 3.0 6.0 0.00 0.00 0.00 54 1021.7
20260509044044 74 342 2.0 7.0 0.00 0.00 0.00 54 1021.7
20260509043545 74 78 1.0 8.0 0.00 0.00 0.00 56 1021.7
20260509043052 73 76 4.0 8.0 0.00 0.00 0.00 55 1021.7
20260509042548 74 94 3.0 7.0 0.00 0.00 0.00 55 1021.7
20260509042044 73 53 1.0 6.0 0.00 0.00 0.00 55 1021.8
20260509041553 73 111 1.0 6.0 0.00 0.00 0.00 56 1021.8
20260509041044 73 166 1.0 5.0 0.00 0.00 0.00 56 1021.8
20260509040544 73 39 2.0 5.0 0.00 0.00 0.00 55 1021.8
20260509040124 73 176 2.0 5.0 0.00 0.00 0.00 55 1021.8
20260509035544 73 149 2.0 5.0 0.00 0.00 0.00 55 1021.8
20260509035047 73 238 1.0 7.0 0.00 0.00 0.00 57 1021.7
20260509034556 73 112 2.0 7.0 0.00 0.00 0.00 56 1021.8
20260509034044 73 167 2.0 6.0 0.00 0.00 0.00 56 1021.8
20260509033546 73 172 1.0 5.0 0.00 0.00 0.00 55 1021.8
20260509033054 73 189 1.0 5.0 0.00 0.00 0.00 58 1021.9
20260509032544 73 176 1.0 5.0 0.00 0.00 0.00 57 1022.0
20260509032047 73 101 1.0 5.0 0.00 0.00 0.00 57 1022.0
20260509031600 73 205 1.0 5.0 0.00 0.00 0.00 58 1022.0
20260509031043 72 194 2.0 6.0 0.00 0.00 0.00 58 1022.1
20260509030544 72 0 2.0 7.0 0.00 0.00 0.00 58 1022.1
20260509030058 72 214 3.0 7.0 0.00 0.00 0.00 58 1022.1
20260509025546 72 198 1.0 3.0 0.00 0.00 0.00 57 1022.1
20260509025046 72 298 1.0 6.0 0.00 0.00 0.00 58 1022.2
20260509024555 72 106 2.0 6.0 0.00 0.00 0.00 59 1022.2
20260509024044 72 142 2.0 5.0 0.00 0.00 0.00 60 1022.3
20260509023548 72 120 0.0 6.0 0.00 0.00 0.00 59 1022.4
20260509023056 71 0 1.0 6.0 0.00 0.00 0.00 60 1022.4
20260509022544 72 193 2.0 5.0 0.00 0.00 0.00 59 1022.5
20260509022044 72 197 0.0 5.0 0.00 0.00 0.00 59 1022.7
20260509021548 72 345 1.0 5.0 0.00 0.00 0.00 59 1022.7
20260509021043 72 190 2.0 5.0 0.00 0.00 0.00 59 1022.8
20260509020541 71 143 2.0 6.0 0.00 0.00 0.00 58 1023.0
20260509020048 71 93 2.0 6.0 0.00 0.00 0.00 59 1023.1
20260509015545 71 115 1.0 5.0 0.00 0.00 0.00 59 1023.1
20260509015045 70 199 1.0 6.0 0.00 0.00 0.00 59 1023.0
20260509014550 70 171 1.0 6.0 0.00 0.00 0.00 58 1023.1
20260509014044 70 176 3.0 6.0 0.00 0.00 0.00 58 1023.3
20260509013544 70 0 1.0 5.0 0.00 0.00 0.00 59 1023.4
20260509013051 70 180 0.0 3.0 0.00 0.00 0.00 60 1023.4
20260509012544 69 0 0.0 0.0 0.00 0.00 0.00 59 1023.6
20260509012043 69 0 0.0 0.0 0.00 0.00 0.00 60 1023.6
20260509011558 69 0 0.0 0.0 0.00 0.00 0.00 61 1023.5
20260509011044 68 0 0.0 0.0 0.00 0.00 0.00 61 1023.7
20260509010542 67 0 0.0 2.0 0.00 0.00 0.00 61 1023.6
20260509010050 67 0 0.0 2.0 0.00 0.00 0.00 62 1023.8
20260509005544 67 0 0.0 3.0 0.00 0.00 0.00 61 1023.7
20260509005043 67 0 1.0 3.0 0.00 0.00 0.00 62 1023.8
20260509004606 67 0 0.0 0.0 0.00 0.00 0.00 63 1023.7
20260509004044 66 0 0.0 0.0 0.00 0.00 0.00 62 1023.7
20260509003544 66 0 0.0 0.0 0.00 0.00 0.00 64 1023.7
20260509003048 65 0 0.0 0.0 0.00 0.00 0.00 64 1023.7
20260509002544 65 0 0.0 0.0 0.00 0.00 0.00 63 1023.9
20260509002044 65 0 0.0 0.0 0.00 0.00 0.00 63 1023.9
20260509001550 65 0 0.0 0.0 0.00 0.00 0.00 64 1024.0
20260509001044 64 0 0.0 1.0 0.00 0.00 0.00 64 1024.0
20260509000541 64 0 0.0 3.0 0.00 0.00 0.00 63 1024.0
20260509000047 65 0 0.0 3.0 0.00 0.00 0.00 63 1024.0
20260508235544 65 186 1.0 4.0 0.00 0.00 0.00 63 1024.1
20260508235045 64 0 0.0 4.0 0.00 0.00 0.00 63 1024.0
20260508234548 65 204 2.0 4.0 0.00 0.00 0.00 62 1024.0
20260508234046 66 0 0.0 1.0 0.00 0.00 0.00 62 1024.0
20260508233544 65 0 0.0 5.0 0.00 0.00 0.00 64 1023.9
20260508233056 64 0 0.0 5.0 0.00 0.00 0.00 63 1023.9
20260508232546 65 185 0.0 2.0 0.00 0.00 0.00 64 1023.9
20260508232044 64 288 1.0 2.0 0.00 0.00 0.00 64 1023.8
20260508231556 65 0 0.0 0.0 0.00 0.00 0.00 68 1023.8
20260508231043 63 0 0.0 0.0 0.00 0.00 0.00 70 1023.8
20260508230541 62 0 0.0 0.0 0.00 0.00 0.00 71 1023.8
20260508230049 62 0 0.0 0.0 0.00 0.00 0.00 72 1023.7
20260508225544 61 0 0.0 0.0 0.00 0.00 0.00 71 1023.6
20260508225044 61 0 0.0 0.0 0.00 0.00 0.00 72 1023.6
20260508224553 61 0 0.0 0.0 0.00 0.00 0.00 74 1023.7
20260508224044 60 0 0.0 0.0 0.00 0.00 0.00 75 1023.6
20260508223548 60 0 0.0 0.0 0.00 0.00 0.00 76 1023.4
20260508223054 60 0 0.0 0.0 0.00 0.00 0.00 77 1023.3
20260508222542 59 0 0.0 0.0 0.00 0.00 0.00 78 1023.3
20260508222043 59 0 0.0 0.0 0.00 0.00 0.00 79 1023.2
20260508221549 58 0 0.0 0.0 0.00 0.00 0.00 80 1023.2
20260508221046 57 0 0.0 0.0 0.00 0.00 0.00 80 1023.2
20260508220545 56 0 0.0 0.0 0.00 0.00 0.00 82 1023.1
20260508220110 55 0 0.0 0.0 0.00 0.00 0.00 83 1023.1
20260508215544 54 0 0.0 0.0 0.00 0.00 0.00 84 1023.0
20260508215043 53 0 0.0 0.0 0.00 0.00 0.00 85 1022.8
20260508214606 52 0 0.0 1.0 0.00 0.00 0.00 85 1022.8
20260508214042 51 0 0.0 1.0 0.00 0.00 0.00 85 1022.8
20260508213541 51 0 0.0 1.0 0.00 0.00 0.00 85 1022.8
20260508213054 50 316 0.0 0.0 0.00 0.00 0.00 85 1022.7
20260508212544 50 0 0.0 0.0 0.00 0.00 0.00 87 1022.6
20260508212041 49 0 0.0 0.0 0.00 0.00 0.00 88 1022.4
20260508211553 48 0 0.0 0.0 0.00 0.00 0.00 89 1022.4
20260508211043 48 0 0.0 0.0 0.00 0.00 0.00 88 1022.4
20260508210544 48 0 0.0 0.0 0.00 0.00 0.00 89 1022.4
20260508210054 47 0 0.0 0.0 0.00 0.00 0.00 88 1022.3
20260508205543 47 0 0.0 0.0 0.00 0.00 0.00 89 1022.4
20260508205043 47 0 0.0 0.0 0.00 0.00 0.00 89 1022.3
20260508204552 47 0 0.0 0.0 0.00 0.00 0.00 89 1022.3
20260508204044 47 0 0.0 0.0 0.00 0.00 0.00 88 1022.2
20260508203546 47 0 0.0 0.0 0.00 0.00 0.00 88 1022.1
20260508203100 47 0 0.0 0.0 0.00 0.00 0.00 87 1022.0
20260508202544 47 0 0.0 0.0 0.00 0.00 0.00 88 1021.8
20260508202043 47 0 0.0 0.0 0.00 0.00 0.00 88 1021.8
20260508201553 47 0 0.0 0.0 0.00 0.00 0.00 88 1021.9
20260508201045 48 0 0.0 0.0 0.00 0.00 0.00 88 1021.8
20260508200543 48 0 0.0 0.0 0.00 0.00 0.00 87 1021.6
20260508200050 48 0 0.0 0.0 0.00 0.00 0.00 87 1021.6
20260508195541 48 0 0.0 1.0 0.00 0.00 0.00 87 1021.6
20260508195044 47 0 0.0 1.0 0.00 0.00 0.00 87 1021.6
20260508194559 47 0 0.0 1.0 0.00 0.00 0.00 87 1021.5
20260508194043 47 0 0.0 1.0 0.00 0.00 0.00 87 1021.3
20260508193541 48 308 0.0 1.0 0.00 0.00 0.00 87 1021.4
20260508193104 47 307 0.0 1.0 0.00 0.00 0.00 87 1021.2
20260508192544 47 0 0.0 1.0 0.00 0.00 0.00 87 1021.0
20260508192045 47 0 0.0 1.0 0.00 0.00 0.00 88 1021.0
20260508191551 48 307 0.0 1.0 0.00 0.00 0.00 88 1021.0
20260508191043 48 0 0.0 1.0 0.00 0.00 0.00 88 1020.9
20260508190543 48 316 0.0 1.0 0.00 0.00 0.00 88 1020.9
20260508190105 48 303 0.0 1.0 0.00 0.00 0.00 88 1020.8
20260508185544 48 302 0.0 1.0 0.00 0.00 0.00 88 1020.8
20260508185044 48 321 0.0 1.0 0.00 0.00 0.00 88 1020.8
20260508184600 48 0 0.0 1.0 0.00 0.00 0.00 88 1020.8
20260508184043 47 324 0.0 1.0 0.00 0.00 0.00 87 1020.7
20260508183543 47 0 0.0 1.0 0.00 0.00 0.00 88 1020.6
20260508183050 47 320 0.0 1.0 0.00 0.00 0.00 88 1020.6
20260508182544 47 323 0.0 1.0 0.00 0.00 0.00 87 1020.6
20260508182043 47 321 0.0 1.0 0.00 0.00 0.00 87 1020.6
20260508181602 47 0 0.0 0.0 0.00 0.00 0.00 86 1020.5
20260508181043 47 0 0.0 0.0 0.00 0.00 0.00 86 1020.5
20260508180545 47 0 0.0 0.0 0.00 0.00 0.00 86 1020.6
20260508180052 48 0 0.0 0.0 0.00 0.00 0.00 85 1020.6
20260508175544 48 0 0.0 0.0 0.00 0.00 0.00 86 1020.6
20260508175045 48 0 0.0 0.0 0.00 0.00 0.00 85 1020.6
20260508174549 48 0 0.0 0.0 0.00 0.00 0.00 85 1020.5
20260508174043 48 0 0.0 0.0 0.00 0.00 0.00 85 1020.7
20260508173544 48 0 0.0 0.0 0.00 0.00 0.00 83 1020.6
20260508173048 48 0 0.0 0.0 0.00 0.00 0.00 84 1020.7
20260508172544 48 0 0.0 0.0 0.00 0.00 0.00 84 1020.6
20260508172043 48 0 0.0 0.0 0.00 0.00 0.00 84 1020.6
20260508171552 48 0 0.0 1.0 0.00 0.00 0.00 84 1020.6
20260508171042 48 0 0.0 1.0 0.00 0.00 0.00 85 1020.6
20260508170540 48 0 0.0 1.0 0.00 0.00 0.00 83 1020.6
20260508170052 48 0 0.0 0.0 0.00 0.00 0.00 83 1020.4
20260508165543 48 0 0.0 0.0 0.00 0.00 0.00 84 1020.5
20260508165043 49 0 0.0 0.0 0.00 0.00 0.00 84 1020.6
20260508164551 50 0 0.0 0.0 0.00 0.00 0.00 82 1020.4
20260508164043 51 0 0.0 0.0 0.00 0.00 0.00 80 1020.6
20260508163543 51 0 0.0 0.0 0.00 0.00 0.00 75 1020.3
20260508163050 51 0 0.0 0.0 0.00 0.00 0.00 76 1020.5